Weather in Basse-Terre

Guadeloupe     15°59′53″N   61°44′02″W
temp.,
°C
wind,
m/s
gust,
m/s
humid.,
%
clouds,
%
prec.,
mm/h
press.,
hPa
HPBL,
m
29 june, wed
wed2923:00+27ene81478100 0.3 10181075
02:00+27ene81478100 0.5 10151080
05:00+26ene81477100 0.4 10161067
08:00+26e8147799 1.2 10171145
11:00+27e91478100 0.8 10181175
14:00+27e81375100 1.5 10161255
17:00+27e8137595 0.6 10151177
20:00+26e8117899 1.1 1017984
30 june, thu
thu3023:00+26e8107999 0.6 1018960
02:00+26e7978100 1.3 1016868
05:00+26ene797811 0.4 1016896
08:00+27ene797775 0.8 1016992
11:00+27e7975100 0.3 1016973
14:00+28ene6872100 0.3 1015943
17:00+27e71073100 0.3 10141014
20:00+27ene61074100 0.4 1015939
1 july, fri
fri123:00+27ene6875100 0.1 1016918
02:00+26ene5876100 0.3 1014857
05:00+26ene697743 0.2 1014778
08:00+27ene6127325 0.4 10151113
11:00+28ene6127378 0.3 10151217
14:00+27ene8147629 1.4 10131276
17:00+26e9158191 1.7 10131149
20:00+26e91185100 4.8 1014871
2 july, sat
sat223:00+25e91190100 4.5 1015757
02:00+26e7984100 8.9 1013733
05:00+25ese91189100 2.0 1014759
08:00+25ese91289100 8.3 1016910
11:00+25e91287100 6.2 1017758
14:00+25ene7887100 11.4 1016530
17:00+25ne6880100 2.5 1015543
20:00+25ene61084100 3.4 1017760
3 july, sun
sun323:00+25ene61172100 0.1 1017672
02:00+26ene71179100 0.5 1015907
05:00+26e798195 0.5 1016869
08:00+27e687945 0.9 1017883
11:00+27e787497 0.1 10181081
14:00+28e787328 0.2 10171025
17:00+27e6872100 0.1 1016823
20:00+26ene677975 0.3 1018614